THOR ABLESTAR DEB

Satellite information

Favourite Embed

Satellite Type and Status

DEBRISIN ORBIT

Key statistics

Satellite THOR ABLESTAR DEB at a glance.

Uptime

23442

Days in orbit

Revolutions

≈ 14.4

Per day

Orbit

LEO

Low Earth Orbit

Inclination

66.5

Latest

Satellite identification and parameters

Extended collection of information and parameters for THOR ABLESTAR DEB.

Object identification

Identified? True

Debris? True

Object name: THOR ABLESTAR DEB

International designator: 1961-015J

Object number (NORAD): 124

Object ID (CCSDS): 124

Country: UNITED STATES OF AMERICA (US)

Current information (Y/N): Y

RCS size: SMALL

Orbital parameters

Period: 100.338 minutes

Inclination: 66.5437 deg

SMA: 7152.704 km

Apoapsis: 827.703 km

Periapsis: 721.434 km

RAAN: 286.9814 deg

Eccentricy: 0.00742862

Argument of periapsis: 325.671 deg

Mean anomaly: 33.96 deg

Mean motion: 14.35150419 rev/day

Mean motion (dot): 0.00001108 rev/day2

B* drag term: 0.0004052461 1/REarth

Two-line elements (TLE)

Creation date: Sept. 3, 2025, 2:21 a.m.

Reference frame: TEME

Reference center: EARTH

Epoch: Sept. 2, 2025, 8:13 p.m. UTC

TLE line 0: 0 THOR ABLESTAR DEB

TLE line 1: 1 00124U 61015J 25245.84258390 .00001108 00000-0 40525-3 0 9996

TLE line 2: 2 00124 66.5437 286.9814 0074286 325.6710 33.9600 14.35150419317688

Live tracking on map

Real-time ground track for satellite THOR ABLESTAR DEB.

In-orbit conjunctions

A list of the most updated potential collisions computed for object THOR ABLESTAR DEB.

Target Orbit TCA Probability of collision Miss distance Type
NOAA 16 DEB SSO 2025-02-03 02:11:03 0.0001146302 111.0 (m) DEBRIS
DMSP 5D-2 F13 DEB SSO 2025-01-10 11:02:14 0.0001114712 125.0 (m) DEBRIS
CZ-4 DEB SSO 2024-11-13 08:00:54 0.005911705 114.0 (m) DEBRIS
NOAA 16 DEB SSO 2024-11-11 15:26:27 0.0005971652 819.0 (m) DEBRIS

Associated space launch

THOR ABLESTAR DEB was lifted into orbit during the mission ‘Thor DM-21 Ablestar | Transit 4A & Injun-1 & Solrad 3’, on board a Thor DM-21 Ablestar space rocket.

The launch took place on June 29, 1961, 4:23 a.m. from Space Launch Complex 17B.

For more information about the launch, click the button.

Launch to space Thor DM-21 Ablestar | Transit 4A & Injun-1 & Solrad 3
Thor DM-21 Ablestar | Transit 4A & Injun-1 & Solrad 3

Agency: N/A

Status: Launch Successful

Launch date: June 29, 1961, 4:23 a.m. UTC

Rocket: Thor DM-21 Ablestar

Launch pad: Space Launch Complex 17B

Location: Cape Canaveral SFS, FL, USA

...

Latest news about this satellite

There are no fresh news available about this satellite. Check back as we update our databases every day.


Newsletter sign-up

Weekly statistics, charts and insights to help you stay on top of the space industry.